DW1065 Weather Reports


Display with metric or nautical units.
time (UTC)temp
F
wind
direction
speed
MPH
gust
MPH
rain 1hr
in
rain 24hr
in
rain mn
in
humidity
%
barometer
mb
20260508231504 47 160 1.0 3.0 0.00 0.00 0.00 68 1019.4
20260508231005 47 158 1.0 3.0 0.00 0.00 0.00 68 1019.5
20260508230505 47 159 1.0 2.0 0.00 0.00 0.00 68 1019.5
20260508230005 47 159 0.0 3.0 0.00 0.00 0.00 68 1019.5
20260508225505 47 160 0.0 3.0 0.00 0.00 0.00 68 1019.5
20260508225005 47 158 1.0 3.0 0.00 0.00 0.00 68 1019.5
20260508224505 47 162 1.0 2.0 0.00 0.00 0.00 69 1019.5
20260508224006 47 160 0.0 0.0 0.00 0.00 0.00 69 1019.5
20260508223005 47 158 0.0 0.0 0.00 0.00 0.00 69 1019.5
20260508222005 47 159 0.0 0.0 0.00 0.00 0.00 69 1019.5
20260508221504 47 158 0.0 0.0 0.00 0.00 0.00 69 1019.5
20260508221005 47 159 0.0 1.0 0.00 0.00 0.00 69 1019.5
20260508220505 47 160 0.0 2.0 0.00 0.00 0.00 69 1019.5
20260508220005 47 157 1.0 2.0 0.00 0.00 0.00 68 1019.6
20260508215504 47 158 1.0 2.0 0.00 0.00 0.00 68 1019.6
20260508215005 47 158 0.0 1.0 0.00 0.00 0.00 67 1019.6
20260508214005 48 158 0.0 1.0 0.00 0.00 0.00 65 1019.6
20260508213506 48 159 0.0 1.0 0.00 0.00 0.00 67 1019.7
20260508213005 48 159 1.0 1.0 0.00 0.00 0.00 65 1019.7
20260508212505 49 158 0.0 0.0 0.00 0.00 0.00 65 1019.6
20260508212006 49 157 0.0 0.0 0.00 0.00 0.00 64 1019.6
20260508211505 49 159 0.0 1.0 0.00 0.00 0.00 62 1019.6
20260508210506 49 160 0.0 2.0 0.00 0.00 0.00 61 1019.5
20260508205505 50 159 1.0 5.0 0.00 0.00 0.00 61 1019.4
20260508205005 50 160 2.0 5.0 0.00 0.00 0.00 60 1019.5
20260508204505 50 170 1.0 3.0 0.00 0.00 0.00 60 1019.5
20260508204006 50 167 1.0 3.0 0.00 0.00 0.00 60 1019.5
20260508203505 50 172 1.0 3.0 0.00 0.00 0.00 59 1019.3
20260508203005 51 175 1.0 3.0 0.00 0.00 0.00 59 1019.3
20260508202005 51 179 1.0 3.0 0.00 0.00 0.00 59 1019.3
20260508201005 51 182 1.0 2.0 0.00 0.00 0.00 58 1019.3
20260508200505 52 185 1.0 2.0 0.00 0.00 0.00 57 1019.4
20260508195005 52 181 1.0 3.0 0.00 0.00 0.00 56 1019.1
20260508194504 53 184 1.0 3.0 0.00 0.00 0.00 55 1019.2
20260508194005 53 185 0.0 3.0 0.00 0.00 0.00 55 1019.2
20260508193505 53 186 1.0 3.0 0.00 0.00 0.00 54 1019.1
20260508193009 53 147 1.0 3.0 0.00 0.00 0.00 54 1019.1
20260508191005 54 202 1.0 2.0 0.00 0.00 0.00 52 1019.0
20260508190504 54 202 0.0 5.0 0.00 0.00 0.00 52 1018.9
20260508190005 55 203 0.0 5.0 0.00 0.00 0.00 52 1018.9
20260508185505 55 201 2.0 5.0 0.00 0.00 0.00 51 1018.9
20260508185005 55 203 1.0 3.0 0.00 0.00 0.00 51 1018.8
20260508184505 55 208 2.0 3.0 0.00 0.00 0.00 50 1019.0
20260508184005 55 206 2.0 3.0 0.00 0.00 0.00 50 1019.0
20260508183505 55 189 2.0 3.0 0.00 0.00 0.00 50 1018.9
20260508183006 56 186 1.0 3.0 0.00 0.00 0.00 49 1018.9
20260508182005 56 219 0.0 5.0 0.00 0.00 0.00 48 1018.9
20260508181005 56 210 2.0 5.0 0.00 0.00 0.00 47 1018.8
20260508180505 56 207 2.0 5.0 0.00 0.00 0.00 47 1018.8
20260508180006 57 207 2.0 3.0 0.00 0.00 0.00 46 1018.7
20260508175505 57 234 1.0 3.0 0.00 0.00 0.00 46 1018.7
20260508175006 57 239 1.0 7.0 0.00 0.00 0.00 45 1018.7
20260508174506 57 228 2.0 7.0 0.00 0.00 0.00 44 1018.6
20260508174005 57 198 2.0 6.0 0.00 0.00 0.00 44 1018.6
20260508173505 58 221 3.0 7.0 0.00 0.00 0.00 43 1018.6
20260508173005 58 220 1.0 7.0 0.00 0.00 0.00 44 1018.6
20260508172505 58 229 1.0 6.0 0.00 0.00 0.00 43 1018.5
20260508172005 58 216 2.0 8.0 0.00 0.00 0.00 42 1018.5
20260508171005 59 191 3.0 9.0 0.00 0.00 0.00 40 1018.5
20260508170505 59 198 4.0 9.0 0.00 0.00 0.00 41 1018.6
20260508170005 59 230 3.0 7.0 0.00 0.00 0.00 41 1018.5
20260508165504 60 219 1.0 9.0 0.00 0.00 0.00 41 1018.5
20260508164506 60 254 3.0 10.0 0.00 0.00 0.00 39 1018.5
20260508164005 60 233 4.0 10.0 0.00 0.00 0.00 39 1018.5
20260508163505 60 209 2.0 9.0 0.00 0.00 0.00 41 1018.4
20260508163005 60 263 2.0 6.0 0.00 0.00 0.00 40 1018.4
20260508162505 60 248 3.0 9.0 0.00 0.00 0.00 40 1018.4
20260508162005 60 211 2.0 10.0 0.00 0.00 0.00 40 1018.5
20260508161504 61 248 2.0 10.0 0.00 0.00 0.00 39 1018.4
20260508161005 61 226 3.0 10.0 0.00 0.00 0.00 39 1018.5
20260508160505 61 217 4.0 8.0 0.00 0.00 0.00 39 1018.4
20260508160007 61 205 3.0 8.0 0.00 0.00 0.00 40 1018.4
20260508155505 62 272 1.0 8.0 0.00 0.00 0.00 39 1018.4
20260508155005 62 227 4.0 8.0 0.00 0.00 0.00 38 1018.4
20260508154005 62 218 4.0 10.0 0.00 0.00 0.00 39 1018.5
20260508153505 62 267 3.0 10.0 0.00 0.00 0.00 38 1018.5
20260508153006 62 216 3.0 9.0 0.00 0.00 0.00 38 1018.5
20260508152505 62 201 4.0 9.0 0.00 0.00 0.00 38 1018.5
20260508152005 62 243 3.0 8.0 0.00 0.00 0.00 38 1018.5
20260508151506 63 232 4.0 8.0 0.00 0.00 0.00 38 1018.6
20260508151005 63 226 4.0 8.0 0.00 0.00 0.00 38 1018.6
20260508150505 63 242 3.0 10.0 0.00 0.00 0.00 38 1018.5
20260508150006 63 199 5.0 10.0 0.00 0.00 0.00 37 1018.6
20260508145505 63 249 5.0 9.0 0.00 0.00 0.00 38 1018.7
20260508145005 63 227 3.0 12.0 0.00 0.00 0.00 38 1018.6
20260508144505 63 232 3.0 12.0 0.00 0.00 0.00 38 1018.6
20260508144005 63 238 2.0 10.0 0.00 0.00 0.00 38 1018.6
20260508143505 63 220 5.0 13.0 0.00 0.00 0.00 39 1018.5
20260508143005 63 249 4.0 13.0 0.00 0.00 0.00 37 1018.6
20260508142505 63 249 4.0 8.0 0.00 0.00 0.00 38 1018.6
20260508142005 63 231 4.0 8.0 0.00 0.00 0.00 39 1018.6
20260508141506 63 188 4.0 10.0 0.00 0.00 0.00 39 1018.6
20260508141005 63 211 5.0 10.0 0.00 0.00 0.00 37 1018.6
20260508140504 64 201 5.0 14.0 0.00 0.00 0.00 38 1018.7
20260508140005 64 218 4.0 14.0 0.00 0.00 0.00 39 1018.7
20260508135505 64 192 4.0 14.0 0.00 0.00 0.00 41 1018.6
20260508135005 64 227 3.0 8.0 0.00 0.00 0.00 43 1018.7
20260508134506 63 269 2.0 7.0 0.00 0.00 0.00 41 1018.8
20260508134005 63 272 3.0 9.0 0.00 0.00 0.00 41 1018.8
20260508133505 63 229 4.0 10.0 0.00 0.00 0.00 42 1018.8
20260508132504 63 200 6.0 12.0 0.00 0.00 0.00 39 1018.8
20260508131505 63 191 3.0 12.0 0.00 0.00 0.00 43 1018.8
20260508130504 63 206 6.0 12.0 0.00 0.00 0.00 40 1018.9
20260508130007 63 247 3.0 7.0 0.00 0.00 0.00 42 1018.9
20260508125504 63 255 3.0 8.0 0.00 0.00 0.00 41 1018.9
20260508124506 63 214 3.0 10.0 0.00 0.00 0.00 42 1018.8
20260508124004 62 253 3.0 10.0 0.00 0.00 0.00 42 1018.8
20260508123505 62 269 2.0 12.0 0.00 0.00 0.00 41 1018.8
20260508123007 62 204 3.0 12.0 0.00 0.00 0.00 41 1018.9
20260508122505 62 246 4.0 9.0 0.00 0.00 0.00 43 1018.9
20260508122006 62 214 3.0 10.0 0.00 0.00 0.00 41 1018.9
20260508121506 62 179 5.0 10.0 0.00 0.00 0.00 43 1018.8
20260508120505 62 200 4.0 8.0 0.00 0.00 0.00 42 1018.8
20260508120005 62 215 2.0 7.0 0.00 0.00 0.00 42 1018.8
20260508115005 63 220 5.0 10.0 0.00 0.00 0.00 41 1018.9
20260508114505 63 250 2.0 15.0 0.00 0.00 0.00 40 1018.8
20260508114006 64 203 7.0 15.0 0.00 0.00 0.00 39 1018.8
20260508113506 64 192 6.0 12.0 0.00 0.00 0.00 40 1018.8
20260508113006 63 281 3.0 12.0 0.00 0.00 0.00 40 1018.7
20260508112505 63 226 4.0 12.0 0.00 0.00 0.00 40 1018.8
20260508112006 63 171 7.0 12.0 0.00 0.00 0.00 40 1018.8
20260508111508 63 225 3.0 10.0 0.00 0.00 0.00 39 1018.7
20260508110006 62 208 5.0 10.0 0.00 0.00 0.00 40 1018.7
20260508105005 62 258 2.0 8.0 0.00 0.00 0.00 41 1018.6
20260508104506 61 206 3.0 8.0 0.00 0.00 0.00 43 1018.7
20260508104005 61 215 2.0 9.0 0.00 0.00 0.00 43 1018.7
20260508103504 61 218 3.0 9.0 0.00 0.00 0.00 41 1018.7
20260508103006 61 209 3.0 10.0 0.00 0.00 0.00 43 1018.7
20260508102504 61 200 6.0 10.0 0.00 0.00 0.00 43 1018.7
20260508102005 61 217 4.0 10.0 0.00 0.00 0.00 44 1018.7
20260508101005 61 204 5.0 12.0 0.00 0.00 0.00 43 1018.7
20260508100505 61 216 3.0 7.0 0.00 0.00 0.00 43 1018.7
20260508100006 61 290 3.0 10.0 0.00 0.00 0.00 44 1018.7
20260508095004 61 181 5.0 12.0 0.00 0.00 0.00 44 1018.7
20260508094505 61 171 3.0 12.0 0.00 0.00 0.00 44 1018.7
20260508094004 60 201 4.0 13.0 0.00 0.00 0.00 46 1018.7
20260508093505 60 151 4.0 13.0 0.00 0.00 0.00 45 1018.7
20260508093005 59 182 4.0 13.0 0.00 0.00 0.00 46 1018.7
20260508092504 59 154 6.0 12.0 0.00 0.00 0.00 43 1018.7
20260508092004 59 174 3.0 9.0 0.00 0.00 0.00 43 1018.7
20260508091505 59 182 3.0 10.0 0.00 0.00 0.00 43 1018.8
20260508091004 59 158 5.0 10.0 0.00 0.00 0.00 42 1018.8
20260508090504 58 137 3.0 8.0 0.00 0.00 0.00 44 1018.8
20260508090005 58 159 1.0 8.0 0.00 0.00 0.00 45 1018.8
20260508085505 57 195 3.0 7.0 0.00 0.00 0.00 44 1018.8
20260508085005 57 137 2.0 8.0 0.00 0.00 0.00 43 1018.8
20260508084505 57 149 3.0 8.0 0.00 0.00 0.00 42 1018.8
20260508083505 57 204 2.0 8.0 0.00 0.00 0.00 43 1018.8
20260508083005 57 210 4.0 8.0 0.00 0.00 0.00 41 1018.8
20260508082506 57 208 2.0 6.0 0.00 0.00 0.00 42 1018.7
20260508082005 56 211 3.0 6.0 0.00 0.00 0.00 40 1018.7
20260508081504 56 169 3.0 6.0 0.00 0.00 0.00 40 1018.6
20260508081005 56 173 3.0 9.0 0.00 0.00 0.00 39 1018.6
20260508075506 55 131 3.0 7.0 0.00 0.00 0.00 41 1018.7
20260508075005 55 179 2.0 6.0 0.00 0.00 0.00 41 1018.7
20260508074505 55 223 2.0 3.0 0.00 0.00 0.00 42 1018.7
20260508074006 54 189 2.0 8.0 0.00 0.00 0.00 43 1018.7
20260508073504 54 177 2.0 8.0 0.00 0.00 0.00 45 1018.7
20260508073006 54 182 3.0 6.0 0.00 0.00 0.00 45 1018.7
20260508072506 54 178 2.0 7.0 0.00 0.00 0.00 48 1018.7
20260508072005 54 138 3.0 7.0 0.00 0.00 0.00 49 1018.6
20260508071505 53 167 3.0 5.0 0.00 0.00 0.00 53 1018.6
20260508070505 53 147 2.0 5.0 0.00 0.00 0.00 55 1018.4
20260508065505 52 181 2.0 5.0 0.00 0.00 0.00 55 1018.4
20260508065005 52 187 1.0 3.0 0.00 0.00 0.00 56 1018.4
20260508064504 51 135 1.0 6.0 0.00 0.00 0.00 57 1018.4
20260508064006 51 154 1.0 6.0 0.00 0.00 0.00 57 1018.4
20260508063504 50 142 1.0 5.0 0.00 0.00 0.00 58 1018.3
20260508063005 50 176 3.0 5.0 0.00 0.00 0.00 64 1018.4
20260508062505 49 172 1.0 3.0 0.00 0.00 0.00 64 1018.3
20260508061505 48 119 0.0 5.0 0.00 0.00 0.00 68 1018.2
20260508061004 47 116 1.0 5.0 0.00 0.00 0.00 69 1018.1
20260508060505 47 132 1.0 5.0 0.00 0.00 0.00 71 1018.1
20260508055505 45 182 1.0 3.0 0.00 0.00 0.00 73 1018.1
20260508055005 44 191 1.0 3.0 0.00 0.00 0.00 75 1018.1
20260508054504 44 177 1.0 3.0 0.00 0.00 0.00 76 1018.0
20260508054006 43 158 0.0 2.0 0.00 0.00 0.00 77 1018.0
20260508053505 42 158 1.0 2.0 0.00 0.00 0.00 78 1017.9
20260508053006 41 154 1.0 2.0 0.00 0.00 0.00 79 1017.9
20260508052505 40 156 1.0 2.0 0.00 0.00 0.00 80 1017.9
20260508052005 39 155 1.0 2.0 0.00 0.00 0.00 80 1017.9
20260508051505 38 130 0.0 0.0 0.00 0.00 0.00 80 1017.8
20260508051005 37 127 0.0 0.0 0.00 0.00 0.00 81 1017.7
20260508050505 37 128 0.0 1.0 0.00 0.00 0.00 82 1017.7
20260508045505 36 126 1.0 2.0 0.00 0.00 0.00 83 1017.6
20260508045005 35 128 0.0 2.0 0.00 0.00 0.00 84 1017.7
20260508044506 34 174 0.0 0.0 0.00 0.00 0.00 83 1017.6
20260508044004 34 176 0.0 1.0 0.00 0.00 0.00 83 1017.6
20260508043504 34 174 0.0 1.0 0.00 0.00 0.00 83 1017.5
20260508042505 33 174 0.0 1.0 0.00 0.00 0.00 81 1017.4
20260508042005 33 177 0.0 1.0 0.00 0.00 0.00 79 1017.4
20260508041505 33 174 0.0 1.0 0.00 0.00 0.00 79 1017.4
20260508041006 33 121 0.0 0.0 0.00 0.00 0.00 79 1017.4
20260508040504 33 122 0.0 0.0 0.00 0.00 0.00 79 1017.4
20260508040005 33 120 0.0 0.0 0.00 0.00 0.00 79 1017.4
20260508035505 33 121 0.0 0.0 0.00 0.00 0.00 79 1017.4
20260508035005 33 121 0.0 0.0 0.00 0.00 0.00 79 1017.3
20260508034504 34 121 0.0 0.0 0.00 0.00 0.00 79 1017.3
20260508034006 34 121 0.0 0.0 0.00 0.00 0.00 79 1017.2
20260508033504 34 122 0.0 2.0 0.00 0.00 0.00 79 1017.2
20260508033005 34 121 0.0 2.0 0.00 0.00 0.00 80 1017.2
20260508032504 34 122 1.0 2.0 0.00 0.00 0.00 80 1017.2
20260508031505 34 120 1.0 2.0 0.00 0.00 0.00 80 1017.1
20260508031005 34 122 1.0 2.0 0.00 0.00 0.00 81 1017.1
20260508030504 33 122 1.0 2.0 0.00 0.00 0.00 81 1017.1
20260508030005 33 122 1.0 2.0 0.00 0.00 0.00 81 1017.1
20260508025506 33 122 1.0 3.0 0.00 0.00 0.00 81 1017.1
20260508025005 33 123 1.0 3.0 0.00 0.00 0.00 80 1017.2
20260508024505 33 122 1.0 2.0 0.00 0.00 0.00 80 1017.2
20260508024005 33 122 1.0 2.0 0.00 0.00 0.00 80 1017.2
20260508023505 33 122 1.0 2.0 0.00 0.00 0.00 79 1017.2
20260508023005 33 122 1.0 2.0 0.00 0.00 0.00 79 1017.1
20260508022005 33 121 1.0 2.0 0.00 0.00 0.00 79 1016.9
20260508021505 33 123 1.0 2.0 0.00 0.00 0.00 79 1016.9
20260508021006 33 123 1.0 2.0 0.00 0.00 0.00 79 1016.9
20260508020505 33 123 1.0 2.0 0.00 0.00 0.00 79 1016.9
20260508020005 33 121 1.0 2.0 0.00 0.00 0.00 79 1016.8
20260508015505 34 123 1.0 3.0 0.00 0.00 0.00 78 1016.8
20260508014504 34 121 1.0 2.0 0.00 0.00 0.00 76 1016.8
20260508014004 34 122 0.0 0.0 0.00 0.00 0.00 75 1016.8
20260508013506 35 123 0.0 0.0 0.00 0.00 0.00 75 1016.8
20260508012505 35 122 0.0 0.0 0.00 0.00 0.00 73 1016.6
20260508012005 35 122 0.0 0.0 0.00 0.00 0.00 73 1016.6
20260508011504 36 123 0.0 0.0 0.00 0.00 0.00 73 1016.5
20260508011006 36 124 0.0 0.0 0.00 0.00 0.00 74 1016.5
20260508010504 36 122 0.0 0.0 0.00 0.00 0.00 74 1016.5
20260508010004 36 122 0.0 0.0 0.00 0.00 0.00 74 1016.4
20260508005506 36 123 0.0 0.0 0.00 0.00 0.00 74 1016.3
20260508005004 36 122 0.0 2.0 0.00 0.00 0.00 74 1016.3
20260508004505 36 123 0.0 2.0 0.00 0.00 0.00 74 1016.3
20260508004006 36 123 1.0 2.0 0.00 0.00 0.00 75 1016.3
20260508003504 36 124 1.0 2.0 0.00 0.00 0.00 74 1016.2
20260508002505 37 123 1.0 3.0 0.00 0.00 0.00 74 1016.2
20260508002004 37 130 2.0 3.0 0.00 0.00 0.00 74 1016.1
20260508001505 37 128 2.0 2.0 0.00 0.00 0.00 74 1016.0
20260508000505 37 129 1.0 2.0 0.00 0.00 0.00 73 1016.0
20260508000006 37 128 1.0 2.0 0.00 0.08 0.00 73 1016.1
20260507235005 37 128 1.0 2.0 0.00 0.32 0.00 73 1016.1
20260507234506 38 129 1.0 2.0 0.00 0.42 0.00 73 1016.0
20260507234006 38 129 1.0 2.0 0.00 0.54 0.00 72 1015.9
20260507233504 38 130 1.0 2.0 0.00 0.66 0.00 72 1015.8
20260507232506 38 130 1.0 2.0 0.00 0.90 0.00 71 1015.8
20260507232005 38 130 1.0 2.0 0.00 1.02 0.00 71 1015.8